Weather History for Kake, AK

Change the Weather History Date:

Tuesday, January 8, 2013

  Actual Average Record
Temperature  
Mean Temperature 32 °F -  
Max Temperature 35 °F 33 °F 42 °F (2006)
Min Temperature 30 °F 26 °F 10 °F (2009)
Degree Days  
Heating Degree Days 32    
Moisture  
Dew Point 30 °F    
Average Humidity 87    
Maximum Humidity 93    
Minimum Humidity 81    
Precipitation  
Precipitation 0.08 in - - ()
Sea Level Pressure  
Sea Level Pressure 29.72 in    
Wind  
Wind Speed 7 mph (East)    
Max Wind Speed 13 mph    
Max Gust Speed 17 mph    
Visibility 10 miles    
Events      
Averages and records for this station are not official NWS values.
T = Trace of Precipitation, MM = Missing Value Source: NWS Daily Summary

Daily Weather History Graph

Daily Weather History Graph

Search for Another Location

Airport:

Trip Planner

Search our weather history database for the weather conditions in past years. The results will help you decide how hot, cold, wet, or windy it might be!

Date:

Astronomy

Jan. 08, 2013 Rise Set
Actual Time 8:29 AM AKST 3:36 PM AKST
Civil Twilight 7:41 AM AKST 4:23 PM AKST
Nautical Twilight 6:51 AM AKST 5:13 PM AKST
Astronomical Twilight 6:05 AM AKST 5:59 PM AKST
Moon 5:07 AM AKST (1/8) 12:46 PM AKST (1/8)
Length of Visible Light 8h 42m
Length of Day
7h 07m
Waning Crescent, 12% of the Moon is Illuminated
Jan 8
Waning Crescent
Jan 11
New
Jan 18
First Quarter
Jan 26
Full
Feb 3
Last Quarter

Hourly Weather History & Observations

Time (AKST) Temp. Windchill Dew Point Humidity Pressure Visibility Wind Dir Wind Speed Gust Speed Precip Events Conditions
12:16 AM 33.8 °F 27.0 °F 30.2 °F 87% 29.76 in 10.0 mi ESE 8.1 mph - N/A   Mostly Cloudy
12:36 AM 33.8 °F 27.7 °F 30.2 °F 87% 29.76 in 10.0 mi ESE 6.9 mph - N/A   Overcast
12:56 AM 35.6 °F 29.2 °F 30.2 °F 81% 29.76 in 10.0 mi East 8.1 mph - N/A   Overcast
1:16 AM 35.6 °F 29.2 °F 30.2 °F 81% 29.76 in 10.0 mi ESE 8.1 mph - N/A   Overcast
1:36 AM 35.6 °F 28.6 °F 30.2 °F 81% 29.76 in 10.0 mi ESE 9.2 mph - N/A   Overcast
1:56 AM 35.6 °F 28.0 °F 30.2 °F 81% 29.76 in 10.0 mi ESE 10.4 mph 16.1 mph N/A   Mostly Cloudy
2:16 AM 35.6 °F 28.6 °F 30.2 °F 81% 29.77 in 10.0 mi ESE 9.2 mph - N/A   Overcast
2:36 AM 33.8 °F 24.8 °F 30.2 °F 87% 29.77 in 10.0 mi ESE 12.7 mph 17.3 mph 0.01 in   Overcast
2:56 AM 33.8 °F 26.4 °F 30.2 °F 87% 29.77 in 8.0 mi ESE 9.2 mph - 0.02 in   Overcast
3:16 AM 33.8 °F 27.0 °F 30.2 °F 87% 29.77 in 10.0 mi ESE 8.1 mph - 0.01 in   Overcast
3:36 AM 33.8 °F 28.6 °F 30.2 °F 87% 29.77 in 10.0 mi ESE 5.8 mph - 0.02 in   Overcast
3:56 AM 35.6 °F 28.6 °F 30.2 °F 81% 29.77 in 10.0 mi ESE 9.2 mph - 0.02 in   Overcast
4:16 AM 33.8 °F 26.4 °F 30.2 °F 87% 29.77 in 10.0 mi SE 9.2 mph - N/A   Overcast
4:36 AM 33.8 °F 27.7 °F 30.2 °F 87% 29.77 in 6.0 mi ESE 6.9 mph 17.3 mph N/A   Overcast
4:56 AM 33.8 °F 27.0 °F 30.2 °F 87% 29.76 in 10.0 mi ESE 8.1 mph - 0.01 in   Overcast
5:16 AM 33.8 °F 26.4 °F 30.2 °F 87% 29.76 in 10.0 mi ESE 9.2 mph - N/A   Mostly Cloudy
5:36 AM 33.8 °F 25.8 °F 30.2 °F 87% 29.76 in 10.0 mi ESE 10.4 mph - N/A   Mostly Cloudy
5:56 AM 33.8 °F 27.7 °F 30.2 °F 87% 29.76 in 10.0 mi ESE 6.9 mph - N/A   Scattered Clouds
6:16 AM 33.8 °F 27.0 °F 30.2 °F 87% 29.75 in 10.0 mi ESE 8.1 mph - N/A   Clear
6:36 AM 33.8 °F 27.0 °F 30.2 °F 87% 29.76 in 10.0 mi ESE 8.1 mph - N/A   Scattered Clouds
6:56 AM 33.8 °F 27.0 °F 30.2 °F 87% 29.76 in 10.0 mi SE 8.1 mph - N/A   Mostly Cloudy
7:16 AM 33.8 °F 25.8 °F 30.2 °F 87% 29.75 in 10.0 mi East 10.4 mph - N/A   Overcast
7:36 AM 33.8 °F 25.3 °F 30.2 °F 87% 29.76 in 10.0 mi ESE 11.5 mph 16.1 mph N/A   Mostly Cloudy
7:56 AM 33.8 °F 27.7 °F 30.2 °F 87% 29.76 in 10.0 mi ESE 6.9 mph - N/A   Scattered Clouds
8:16 AM 33.8 °F 25.8 °F 30.2 °F 87% 29.76 in 10.0 mi ESE 10.4 mph - N/A   Mostly Cloudy
8:36 AM 33.8 °F 28.6 °F 30.2 °F 87% 29.76 in 10.0 mi ESE 5.8 mph - N/A   Overcast
8:56 AM 33.8 °F 28.6 °F 30.2 °F 87% 29.76 in 10.0 mi ESE 5.8 mph - N/A   Overcast
9:16 AM 33.8 °F 26.4 °F 30.2 °F 87% 29.76 in 10.0 mi ESE 9.2 mph - N/A   Mostly Cloudy
9:56 AM 33.8 °F 27.7 °F 30.2 °F 87% 29.76 in 10.0 mi ESE 6.9 mph - N/A   Mostly Cloudy
10:16 AM 33.8 °F 26.4 °F 30.2 °F 87% 29.76 in 10.0 mi SE 9.2 mph 17.3 mph N/A   Overcast
10:56 AM 33.8 °F 27.7 °F 30.2 °F 87% 29.76 in 10.0 mi SE 6.9 mph - N/A   Overcast
11:16 AM 33.8 °F 28.6 °F 30.2 °F 87% 29.76 in 10.0 mi ESE 5.8 mph - N/A   Mostly Cloudy
11:36 AM 33.8 °F 27.7 °F 30.2 °F 87% 29.75 in 10.0 mi ESE 6.9 mph - N/A   Mostly Cloudy
11:56 AM 33.8 °F 27.7 °F 30.2 °F 87% 29.74 in 10.0 mi ESE 6.9 mph - N/A   Overcast
12:16 PM 33.8 °F 28.6 °F 30.2 °F 87% 29.74 in 5.0 mi ESE 5.8 mph - 0.01 in   Overcast
12:36 PM 33.8 °F 28.6 °F 30.2 °F 87% 29.73 in 3.0 mi ESE 5.8 mph - 0.02 in   Overcast
12:56 PM 33.8 °F 29.6 °F 30.2 °F 87% 29.73 in 9.0 mi ESE 4.6 mph - 0.02 in   Overcast
1:16 PM 33.8 °F 28.6 °F 30.2 °F 87% 29.72 in 9.0 mi ESE 5.8 mph - N/A   Overcast
1:36 PM 33.8 °F 28.6 °F 30.2 °F 87% 29.72 in 10.0 mi SSE 5.8 mph - N/A   Overcast
1:56 PM 33.8 °F 28.6 °F 30.2 °F 87% 29.71 in 5.0 mi East 5.8 mph - 0.01 in   Overcast
2:16 PM 33.8 °F 28.6 °F 30.2 °F 87% 29.71 in 10.0 mi East 5.8 mph - N/A   Overcast
2:36 PM 33.8 °F 29.6 °F 30.2 °F 87% 29.70 in 10.0 mi East 4.6 mph - N/A   Mostly Cloudy
2:56 PM 33.8 °F 29.6 °F 30.2 °F 87% 29.70 in 10.0 mi East 4.6 mph - N/A   Mostly Cloudy
3:16 PM 33.8 °F 29.6 °F 30.2 °F 87% 29.69 in 10.0 mi East 4.6 mph - N/A   Mostly Cloudy
3:36 PM 33.8 °F 28.6 °F 30.2 °F 87% 29.68 in 10.0 mi East 5.8 mph - N/A   Overcast
3:56 PM 33.8 °F 30.8 °F 30.2 °F 87% 29.68 in 10.0 mi East 3.5 mph - N/A   Overcast
4:16 PM 33.8 °F 29.6 °F 30.2 °F 87% 29.68 in 10.0 mi East 4.6 mph - N/A   Overcast
4:36 PM 33.8 °F 29.6 °F 30.2 °F 87% 29.67 in 10.0 mi East 4.6 mph - N/A   Overcast
4:56 PM 33.8 °F 29.6 °F 30.2 °F 87% 29.67 in 10.0 mi East 4.6 mph - N/A   Overcast
5:16 PM 33.8 °F 29.6 °F 30.2 °F 87% 29.67 in 10.0 mi East 4.6 mph - N/A   Overcast
5:36 PM 33.8 °F 29.6 °F 30.2 °F 87% 29.67 in 10.0 mi East 4.6 mph - N/A   Overcast
5:56 PM 32.0 °F 27.5 °F 28.4 °F 87% 29.67 in 10.0 mi East 4.6 mph - N/A   Overcast
6:16 PM 32.0 °F - 28.4 °F 87% 29.67 in 10.0 mi Calm Calm - N/A   Overcast
6:36 PM 32.0 °F 28.7 °F 30.2 °F 93% 29.67 in 10.0 mi East 3.5 mph - N/A   Overcast
6:56 PM 32.0 °F 28.7 °F 28.4 °F 87% 29.67 in 10.0 mi East 3.5 mph - N/A   Overcast
7:16 PM 32.0 °F 28.7 °F 30.2 °F 93% 29.67 in 10.0 mi East 3.5 mph - N/A   Overcast
7:36 PM 32.0 °F - 30.2 °F 93% 29.67 in 10.0 mi Calm Calm - N/A   Overcast
7:56 PM 32.0 °F - 28.4 °F 87% 29.67 in 10.0 mi Calm Calm - N/A   Overcast
8:16 PM 30.2 °F - 28.4 °F 93% 29.67 in 10.0 mi Calm Calm - N/A   Partly Cloudy
8:36 PM 30.2 °F 26.7 °F 28.4 °F 93% 29.68 in 10.0 mi ENE 3.5 mph - N/A   Clear
8:56 PM 32.0 °F 28.7 °F 30.2 °F 93% 29.68 in 10.0 mi NNE 3.5 mph - N/A   Mostly Cloudy
9:16 PM 32.0 °F 27.5 °F 28.4 °F 87% 29.68 in 10.0 mi NNW 4.6 mph - N/A   Overcast
9:36 PM 30.2 °F 26.7 °F 28.4 °F 93% 29.68 in 10.0 mi NNE 3.5 mph - N/A   Scattered Clouds
9:56 PM 32.0 °F 28.7 °F 28.4 °F 87% 29.69 in 10.0 mi North 3.5 mph - N/A   Mostly Cloudy
10:16 PM 30.2 °F 26.7 °F 28.4 °F 93% 29.69 in 10.0 mi NNE 3.5 mph - N/A   Mostly Cloudy
10:36 PM 32.0 °F - 28.4 °F 87% 29.69 in 10.0 mi Calm Calm - N/A   Scattered Clouds
10:56 PM 32.0 °F 27.5 °F 28.4 °F 87% 29.70 in 10.0 mi ENE 4.6 mph - N/A   Mostly Cloudy
11:16 PM 33.8 °F 29.6 °F 30.2 °F 87% 29.70 in 8.0 mi NE 4.6 mph - N/A   Overcast
11:36 PM 33.8 °F 30.8 °F 30.2 °F 87% 29.71 in 6.0 mi NE 3.5 mph - N/A   Overcast
11:56 PM 33.8 °F - 28.4 °F 81% 29.71 in 10.0 mi Calm Calm - N/A   Scattered Clouds